Flag for Australia Weather past 2 weeks in Kalgoorlie, Western Australia, Australia

Now
52 °F

Overcast.


Feels Like: 51 °F
Forecast: 46 / 54 °F
Wind: 5 mph from South

Location: Kalgoorlie Boulder Amo

Current Time: Aug 1, 2015 at 6:01:32 AM

Latest Report: Aug 1, 2015 at 5:30 AM


Visibility: N/A

Pressure: 29.98 "Hg

Humidity: 100%

Dew point: 52 °F

Location of KalgoorlieLocation

Historic Weather in Kalgoorlie — Graph

°F

Kalgoorlie temperature yesterday

Maximum temperature yesterday: 64 °F (at 11:30 AM)
Minimum temperature yesterday: 54 °F (at 10:00 PM)
Average temperature yesterday: 58 °F

Past Weeks' High & Low Weather Summary

 TemperatureHumidityPressure
High75 °F (Jul 29, 3:00 PM)100% (Jul 20, 7:00 PM)30.54 "Hg (Jul 20, 7:00 PM)
Low34 °F (Jul 22, 3:00 AM)11% (Jul 19, 3:30 PM)29.80 "Hg (Jul 20, 2:30 PM)
Average53 °F62%30.18 "Hg
* Reported Jul 17 5:00 AM — Aug 1 5:00 AM, Kalgoorlie, Weather by CustomWeather, © 2015

Note: Actual official high and low records may vary slightly from our data, if they occured in-between our weather recording intervals... More about our weather records

Advertising

Kalgoorlie weather history for previous 24 hours

 ConditionsComfort  
Time TempWeatherWind HumidityBarometerVisibility
5:00 AM
Sat, Aug 1
52 °FMostly cloudy.5 mph100%29.98 "HgN/A
4:30 AM52 °FOvercast.6 mph100%29.98 "HgN/A
4:00 AM52 °FMostly cloudy.6 mph100%29.98 "HgN/A
3:30 AM52 °FMostly cloudy.7 mph100%29.95 "HgN/A
3:00 AM52 °FPassing clouds.6 mph94%29.95 "HgN/A
2:30 AM52 °FClear.2 mph100%29.95 "HgN/A
2:00 AM52 °FClear.6 mph100%29.95 "HgN/A
1:30 AM54 °FPassing clouds.8 mph94%29.95 "HgN/A
1:00 AM54 °FClear.6 mph94%29.95 "HgN/A
12:30 AM54 °FPassing clouds.9 mph94%29.92 "HgN/A
12:00 AM54 °FRain showers. Overcast.12 mph94%29.92 "HgN/A
11:30 PM
Fri, Jul 31
55 °FOvercast.5 mph88%29.98 "HgN/A
11:00 PM54 °FSprinkles. Mostly cloudy.9 mph100%29.98 "HgN/A
10:30 PM55 °FOvercast.10 mph94%29.98 "HgN/A
10:00 PM54 °FRain. Overcast.8 mph100%29.98 "HgN/A
9:30 PM55 °FRain. Overcast.5 mph94%30.04 "HgN/A
9:00 PM55 °FRain. Overcast.5 mph94%30.01 "Hg6 mi
8:30 PM55 °FRain. Overcast.9 mph94%30.01 "HgN/A
8:00 PM55 °FHeavy rain. Overcast.8 mph94%30.01 "Hg6 mi
7:30 PM55 °FHeavy rain. Partly cloudy.13 mph94%30.01 "Hg5 mi
7:00 PM55 °FHeavy rain. Overcast.16 mph94%29.95 "Hg2 mi
6:30 PM55 °FRain. Mostly cloudy.13 mph100%29.95 "HgN/A
6:01 PM55 °FHeavy rain. Overcast.13 mph94%29.95 "Hg5 mi
5:30 PM55 °FLots of rain. Overcast.12 mph100%29.95 "Hg1 mi
5:00 PM57 °FSprinkles. Overcast.16 mph88%29.89 "HgN/A
4:30 PM57 °FSprinkles. Overcast.14 mph94%29.92 "HgN/A
4:00 PM57 °FSprinkles. Overcast.14 mph88%29.92 "HgN/A
3:30 PM59 °FSprinkles. More clouds than sun.13 mph82%29.95 "HgN/A
3:00 PM61 °FMore clouds than sun.17 mph77%29.95 "HgN/A
2:30 PM63 °FOvercast.13 mph77%29.95 "HgN/A
2:00 PM64 °FPartly sunny.14 mph78%29.92 "HgN/A
1:30 PM64 °FBroken clouds.13 mph73%29.92 "HgN/A
1:00 PM64 °FBroken clouds.9 mph73%29.95 "HgN/A
12:30 PM64 °FCloudy.8 mph73%29.95 "HgN/A
12:00 PM64 °FBroken clouds.9 mph73%29.95 "HgN/A
11:30 AM64 °FBroken clouds.6 mph78%29.98 "HgN/A
11:00 AM63 °FScattered clouds.6 mph77%29.98 "HgN/A
10:30 AM63 °FScattered clouds.6 mph77%30.01 "HgN/A
10:00 AM61 °FBroken clouds.7 mph83%30.01 "HgN/A
9:30 AM59 °FScattered clouds.7 mph88%30.01 "HgN/A
9:00 AM57 °FScattered clouds.8 mph94%30.04 "HgN/A
8:30 AM57 °FPartly sunny.8 mph94%30.04 "HgN/A
8:00 AM57 °FOvercast.7 mph94%30.04 "HgN/A
7:30 AM55 °FOvercast.6 mph100%30.04 "HgN/A
7:00 AM55 °FMore clouds than sun.7 mph100%30.04 "HgN/A
6:30 AM55 °FMore clouds than sun.6 mph100%30.07 "HgN/A
6:00 AM55 °FCloudy.13 mph100%30.09 "HgN/A
Weather by CustomWeather, © 2015

See weather overviewHow to use our weather pages